Location: Ash Swamp
(41.5170°N, 74.6157°W)
Time: 17:03:18
(UTC+00:00)

Meteor 1-11 - Pass Details

Date: 14 July 2020
Orbit: 842 x 886 km, 81.2° (Epoch: 04 August)

Event Time Altitude Azimuth Distance (km) Brightness Sun altitude
Rises 01:04:09 0° 178° (S) 3,406 7.0 -5.9°
Reaches altitude 10° 01:06:34 10° 175° (S) 2,480 6.3 -6.3°
Maximum altitude 01:12:07 63° 95° (E) 960 4.3 -7.1°
Drops below altitude 10° 01:17:47 10° 16° (NNE) 2,526 7.0 -8.0°
Sets 01:20:15 0° 14° (NNE) 3,475 7.8 -8.3°
